Regional Weather Roundup
Issued by NWS

Home | Current Version | Previous Version | Text Only | Print | Product List | Glossary Off
Versions: 1 2 3 4 5 6 7 8 9 10 11 12 13 14 15 16 17 18 19 20 21 22 23 24 25 26 27 28 29 30 31 32 33 34 35 36 37 38 39 40 41 42 43 44 45 46 47 48 49 50

000
ASUS43 KMKX 251911
RWRWI

WISCONSIN REGIONAL WEATHER ROUNDUP
NATIONAL WEATHER SERVICE MILWAUKEE/SULLIVAN WI
200 PM CDT SAT OCT 25 2014

NOTE: "FAIR" INDICATES FEW OR NO CLOUDS BELOW 12,000 FEET WITH NO
SIGNIFICANT WEATHER AND/OR OBSTRUCTIONS TO VISIBILITY.

WIZ001-002-006>008-014>016-023>028-252000-
NORTHWEST WISCONSIN

CITY           SKY/WX    TMP DP  RH WIND       PRES   REMARKS
SUPERIOR ARPT  SUNNY     61  29  29 NW17G25   29.92S
ASHLAND        SUNNY     60  29  30 W18G33    29.88F
HAYWARD        SUNNY     60  24  25 W12G26    29.93F
SIREN          SUNNY     61  26  27 W17G23    29.97F
CUMBERLAND     SUNNY     59  25  27 NW18G25   29.97S
RICE LAKE      SUNNY     60  28  30 W15G21    29.98F
CHETEK         SUNNY     60  32  34 W12G20    29.97S
LADYSMITH      SUNNY     60  29  30 W16G24    29.95F
EAU CLAIRE     SUNNY     62  30  29 W12G24    29.97F
MENOMONIE      SUNNY     62  28  28 W17G24    29.99F
NEW RICHMOND   SUNNY     61  27  27 W16G23    30.01F
OSCEOLA        SUNNY     62  28  27 W17G23    30.03F
$$

WIZ003>005-009-010-017-018-252000-
NORTH CENTRAL WISCONSIN

CITY           SKY/WX    TMP DP  RH WIND       PRES   REMARKS
MANITOWISH WTR SUNNY     56  27  32 W17G30    29.85S
ARBOR VITAE    SUNNY     57  28  32 W10G23    29.84F
WOODRUFF       SUNNY     57  28  32 W10G23    29.84F
RHINELANDER    SUNNY     57  27  31 W18G29    29.85S
EAGLE RIVER    SUNNY     57  24  28 W22G31    29.82S
LAND O LAKES   SUNNY     57  24  28 W18G25    29.82S
PHILLIPS       SUNNY     57  31  36 W12G21    29.89S
TOMAHAWK       SUNNY     58  26  29 NW14G29   29.87F
MEDFORD        SUNNY     57  29  33 W18G31    29.91S
MERRILL        SUNNY     60  29  30 NW20      29.87S
$$

WIZ029-030-035-036-043>047-252000-
CENTRAL WISCONSIN

CITY           SKY/WX    TMP DP  RH WIND       PRES   REMARKS
WAUSAU         SUNNY     61  28  28 W21G28    29.87S
MOSINEE        SUNNY     61  30  31 W20G28    29.90S
MARSHFIELD     SUNNY     61  30  31 NW24G31   29.92F
STEVENS POINT  SUNNY     59  32  35 W15G21    29.89F
WAUPACA        SUNNY     65  28  24 NW16G28   29.88S
WAUTOMA        CLOUDY    65  30  27 NW24G30   29.90F
WISC RAPIDS    SUNNY     63  29  27 W20G25    29.93F
CAMP DOUGLAS   SUNNY     66  32  28 W15G25    29.95S
$$

WIZ011>013-019>022-031-037>040-048>050-252000-
NORTHEAST WISCONSIN

CITY           SKY/WX    TMP DP  RH WIND       PRES   REMARKS
ANTIGO         SUNNY     58  30  33 NW18G26   29.85S
SHAWANO        SUNNY     65  26  22 NW18G28   29.83S
OCONTO         SUNNY     64  28  26 NW13G24   29.79R
STURGEON BAY   SUNNY     63  34  34 W15G23    29.78S
GREEN BAY      SUNNY     65  30  27 W21G32    29.82S
MANITOWOC      SUNNY     64  33  31 NW14G25   29.82S
APPLETON       SUNNY     63  30  29 W22       29.86S
CLINTONVILLE   SUNNY     64  28  25 W18G26    29.84S
OSHKOSH        SUNNY     63  33  32 NW14G31   29.86S
$$

WIZ032>034-041-042-053>061-252000-
SOUTHWEST WISCONSIN

CITY           SKY/WX    TMP DP  RH WIND       PRES   REMARKS
LA CROSSE      SUNNY     66  36  32 NW9       29.98F
SPARTA         SUNNY     63  27  26 W16G25    29.98S
VIROQUA        SUNNY     64  30  28 NW15G25   30.00S
BOSCOBEL       SUNNY     70  30  22 NW13G18   29.99F
PRAIRIE DU CHI SUNNY     68  28  22 W12G18    30.00F
PLATTEVILLE    SUNNY     67  33  28 W17G23    30.01S
$$

WIZ056-057-062-063-064-067-068-252000-
SOUTH CENTRAL WISCONSIN

CITY           SKY/WX    TMP DP  RH WIND       PRES   REMARKS
REEDSBURG      SUNNY     65  33  30 W21       29.95R
BARABOO/DELLS  SUNNY     66  28  24 W14G21    29.94S
LONE ROCK      SUNNY     71  29  21 NW18G28   29.96F
MINERAL POINT  SUNNY     68  28  22 W16G23    29.98F
MADISON        MOSUNNY   68  28  22 NW15G25   29.93F
MIDDLETON      SUNNY     69  23  17 NW17G28   29.94F
WATERTOWN      SUNNY     67  32  27 W17       29.90F
MONROE         SUNNY     66  34  30 W15G24    29.96F
JANESVILLE     SUNNY     70  30  23 NW17G23   29.93F
$$

WIZ051-052-058>065-066-070>072-252000-
SOUTHEAST WISCONSIN

CITY           SKY/WX    TMP DP  RH WIND       PRES   REMARKS
MILWAUKEE      MOSUNNY   68  27  21 W18G29    29.88F
WAUKESHA       SUNNY     64  30  27 W21G30    29.91F
MILWAUKEE/TIMM SUNNY     66  25  20 W21G26    29.89S
RACINE         SUNNY     69  32  25 NW14G20   29.91F
BURLINGTON     SUNNY     67  31  26 W23G30    29.91F
KENOSHA        SUNNY     70  36  28 W18G24    29.90F
FOND DU LAC    SUNNY     64  33  31 W21G29    29.87F
SHEBOYGAN      SUNNY     64  32  30 W17G29    29.85S
WEST BEND      SUNNY     64  27  24 W22G35    29.87F
JUNEAU         SUNNY     65  29  25 W13G22    29.91F
$$

LSZ147-162-252000-
LAKE SUPERIOR

STATION/POSITION TIME  TEMP    WIND        PRES    WAVE
                       AIR SEA DIR/SP/G            HT/PER
                 (UTC) (F)     (DEG/KT/KT) (MB)    (FT/S)
W MID LAKE BUOY  1850   49 46  260/ 19/ 23 1008.2F   6/ 6
DEVILS ISLAND    1900   51     250/ 23/ 26 1010.5S
PORT WING        1800   54     250/ 14/ 19 1012.2F
SAXON HARBOR     1900   59     280/ 13/ 25 1011.2S
$$

LMZ867-665-643>646-252000-
LAKE MICHIGAN

STATION/POSITION TIME  TEMP    WIND        PRES    WAVE
                       AIR SEA DIR/SP/G            HT/PER
                 (UTC) (F)     (DEG/KT/KT) (MB)    (FT/S)
CHAMBERS ISLAND  1800   62     250/  5/ 13 1007.8F
N MID LAKE BUOY  1850   55 51  280/ 12/ 16 1006.5R   2/ 5
NORTHPORT PIER   1800   60     290/ 13/ 17 1007.1F
KEWAUNEE LAKESHO 1800   62     300/ 12/ 20 1008.3F
SHEBOYGAN LAKESH 1900   63 51  270/ 23/ 28 1010.7R
PORT WASHINGTON  1800   67     290/  9/ 18 1011.9
ATWATER BUOY     1900   65     250/ 17/ 23 1012.6F
MILWAUKEE LAKESH 1800   65     270/ 17/ 26   N/A
S MID LAKE BUOY  1850   58 54  240/ 12/ 14 1011.9F   2/ 4
KENOSHA   LAKESH 1900   69     290/ 12/ 19 1011.9F
$$

TC  - TEMPERATURE IN CELSIUS
VSB - VISIBILITY IN STATUTE MILES
WCI - WIND CHILL INDEX
HX  - HEAT INDEX




USA.gov is the U.S. government's official web portal to all federal, state and local government web resources and services.